| time (UTC) | temp F | wind direction | speed knots | gust knots | rain 1hr in | rain 24hr in | rain mn in | humidity % | barometer mb |
| 20260509102054 | 41 | 135 | 1.7 | 5.2 | 0.00 | 0.00 | 0.00 | 77 | 1028.6 |
| 20260509101544 | 41 | 225 | 2.6 | 3.5 | 0.00 | 0.00 | 0.00 | 77 | 1028.4 |
| 20260509101033 | 41 | 180 | 1.7 | 7.0 | 0.00 | 0.00 | 0.00 | 77 | 1028.4 |
| 20260509100523 | 41 | 180 | 1.7 | 7.0 | 0.00 | 0.00 | 0.00 | 77 | 1028.4 |
| 20260509100014 | 41 | 158 | 3.5 | 9.6 | 0.00 | 0.00 | 0.00 | 76 | 1028.3 |
| 20260509095503 | 41 | 180 | 6.1 | 13.9 | 0.00 | 0.00 | 0.00 | 75 | 1028.1 |
| 20260509094954 | 41 | 113 | 3.5 | 13.9 | 0.00 | 0.00 | 0.00 | 75 | 1027.8 |
| 20260509094453 | 41 | 180 | 4.3 | 7.8 | 0.00 | 0.00 | 0.00 | 75 | 1028.1 |
| 20260509093933 | 41 | 180 | 1.7 | 7.0 | 0.00 | 0.00 | 0.00 | 76 | 1027.9 |
| 20260509093424 | 41 | 225 | 1.7 | 6.1 | 0.00 | 0.00 | 0.00 | 76 | 1027.9 |
| 20260509092913 | 41 | 23 | 2.6 | 11.3 | 0.00 | 0.00 | 0.00 | 75 | 1027.6 |
| 20260509092402 | 41 | 180 | 4.3 | 11.3 | 0.00 | 0.00 | 0.00 | 75 | 1027.6 |
| 20260509091853 | 41 | 180 | 3.5 | 11.3 | 0.00 | 0.00 | 0.00 | 75 | 1027.7 |
| 20260509091347 | 41 | 158 | 6.1 | 11.3 | 0.00 | 0.00 | 0.00 | 75 | 1027.4 |
| 20260509090833 | 42 | 203 | 4.3 | 9.6 | 0.00 | 0.00 | 0.00 | 75 | 1027.4 |
| 20260509085812 | 41 | 203 | 2.6 | 9.6 | 0.00 | 0.00 | 0.00 | 75 | 1027.6 |
| 20260509085302 | 41 | 203 | 1.7 | 7.0 | 0.00 | 0.00 | 0.00 | 75 | 1027.4 |
| 20260509084752 | 41 | 135 | 1.7 | 7.0 | 0.00 | 0.00 | 0.00 | 75 | 1027.3 |
| 20260509084243 | 41 | 158 | 2.6 | 7.0 | 0.00 | 0.00 | 0.00 | 75 | 1027.4 |
| 20260509083732 | 42 | 338 | 3.5 | 9.6 | 0.00 | 0.00 | 0.00 | 74 | 1027.2 |
| 20260509082201 | 42 | 158 | 2.6 | 9.6 | 0.00 | 0.00 | 0.00 | 73 | 1027.5 |
| 20260509081141 | 42 | 203 | 3.5 | 12.2 | 0.00 | 0.00 | 0.00 | 71 | 1027.3 |
| 20260509080631 | 43 | 90 | 3.5 | 12.2 | 0.00 | 0.00 | 0.00 | 71 | 1026.8 |
| 20260509080120 | 43 | 338 | 1.7 | 13.9 | 0.00 | 0.00 | 0.00 | 70 | 1026.8 |
| 20260509075610 | 43 | 113 | 7.0 | 17.4 | 0.00 | 0.00 | 0.00 | 70 | 1026.8 |
| 20260509074551 | 44 | 180 | 9.6 | 19.1 | 0.00 | 0.00 | 0.00 | 67 | 1026.5 |
| 20260509074040 | 44 | 45 | 5.2 | 14.8 | 0.00 | 0.00 | 0.00 | 69 | 1026.0 |
| 20260509073531 | 44 | 225 | 9.6 | 14.8 | 0.00 | 0.00 | 0.00 | 69 | 1025.8 |
| 20260509073020 | 45 | 158 | 3.5 | 13.0 | 0.00 | 0.00 | 0.00 | 71 | 1025.8 |
| 20260509072512 | 45 | 68 | 1.7 | 9.6 | 0.00 | 0.00 | 0.00 | 72 | 1025.8 |
| 20260509071450 | 46 | 203 | 3.5 | 9.6 | 0.00 | 0.00 | 0.00 | 73 | 1025.4 |
| 20260509070939 | 46 | 293 | 1.7 | 5.2 | 0.00 | 0.00 | 0.00 | 74 | 1025.0 |
| 20260509070429 | 46 | 90 | 2.6 | 5.2 | 0.00 | 0.00 | 0.00 | 75 | 1025.2 |
| 20260509065921 | 46 | 90 | 1.7 | 5.2 | 0.00 | 0.00 | 0.00 | 78 | 1025.0 |
| 20260509065409 | 46 | 90 | 1.7 | 3.5 | 0.00 | 0.00 | 0.00 | 84 | 1025.2 |
| 20260509064859 | 46 | 113 | 1.7 | 3.5 | 0.00 | 0.00 | 0.00 | 86 | 1024.6 |
| 20260509064349 | 46 | 68 | 0.9 | 1.7 | 0.00 | 0.00 | 0.00 | 91 | 1024.4 |
| 20260509063839 | 47 | 45 | 1.7 | 1.7 | 0.00 | 0.00 | 0.00 | 92 | 1024.5 |
| 20260509062818 | 47 | 135 | 0.0 | 1.7 | 0.00 | 0.00 | 0.00 | 92 | 1024.5 |
| 20260509061248 | 47 | 90 | 0.0 | 1.7 | 0.00 | 0.00 | 0.00 | 92 | 1024.2 |
| 20260509060739 | 47 | 135 | 0.9 | 0.0 | 0.00 | 0.00 | 0.00 | 92 | 1024.2 |
| 20260509060150 | 47 | 270 | 0.0 | 0.0 | 0.00 | 0.00 | 0.00 | 91 | 1024.2 |
| 20260509055930 | 47 | 293 | 0.0 | 1.7 | 0.00 | 0.00 | 0.00 | 91 | 1024.1 |
| 20260509055422 | 47 | 68 | 1.7 | 1.7 | 0.00 | 0.00 | 0.00 | 91 | 1024.0 |
| 20260509054910 | 47 | 248 | 0.9 | 1.7 | 0.00 | 0.00 | 0.00 | 90 | 1024.0 |
| 20260509054400 | 47 | 45 | 0.9 | 1.7 | 0.00 | 0.00 | 0.00 | 90 | 1024.0 |
| 20260509053850 | 47 | 23 | 0.9 | 1.7 | 0.00 | 0.00 | 0.00 | 90 | 1023.8 |
| 20260509053339 | 47 | 68 | 0.0 | 1.7 | 0.00 | 0.00 | 0.00 | 90 | 1024.1 |
| 20260509052831 | 47 | 158 | 0.0 | 1.7 | 0.00 | 0.00 | 0.00 | 89 | 1023.6 |
| 20260509052320 | 47 | 45 | 0.0 | 1.7 | 0.00 | 0.00 | 0.00 | 89 | 1023.4 |
| 20260509051300 | 47 | 45 | 0.9 | 1.7 | 0.00 | 0.00 | 0.00 | 89 | 1023.3 |
| 20260509050749 | 47 | 45 | 0.0 | 1.7 | 0.00 | 0.00 | 0.00 | 90 | 1023.2 |
| 20260509050240 | 47 | 68 | 0.0 | 1.7 | 0.00 | 0.00 | 0.00 | 90 | 1023.2 |
| 20260509045729 | 47 | 45 | 0.0 | 1.7 | 0.00 | 0.00 | 0.00 | 90 | 1023.2 |
| 20260509045219 | 47 | 68 | 0.9 | 1.7 | 0.00 | 0.00 | 0.00 | 90 | 1022.7 |
| 20260509044709 | 47 | 248 | 0.0 | 1.7 | 0.00 | 0.00 | 0.00 | 91 | 1022.7 |
| 20260509043649 | 47 | 0 | 0.0 | 1.7 | 0.00 | 0.00 | 0.00 | 91 | 1022.6 |
| 20260509043138 | 46 | 23 | 0.0 | 1.7 | 0.00 | 0.00 | 0.00 | 91 | 1022.5 |
| 20260509042628 | 46 | 0 | 0.0 | 1.7 | 0.00 | 0.00 | 0.00 | 91 | 1022.7 |
| 20260509042121 | 46 | 0 | 0.0 | 1.7 | 0.00 | 0.00 | 0.00 | 91 | 1022.5 |
| 20260509041605 | 46 | 338 | 0.0 | 0.0 | 0.00 | 0.00 | 0.00 | 91 | 1022.4 |
| 20260509041058 | 46 | 225 | 0.0 | 0.0 | 0.00 | 0.00 | 0.00 | 91 | 1022.1 |
| 20260509040547 | 46 | 225 | 0.0 | 1.7 | 0.00 | 0.00 | 0.00 | 91 | 1021.9 |
| 20260509040035 | 46 | 225 | 0.0 | 1.7 | 0.00 | 0.00 | 0.00 | 91 | 1021.9 |
| 20260509035529 | 46 | 23 | 0.0 | 0.0 | 0.00 | 0.00 | 0.00 | 91 | 1021.5 |
| 20260509035018 | 46 | 23 | 0.0 | 1.7 | 0.00 | 0.00 | 0.00 | 91 | 1021.5 |
| 20260509034507 | 46 | 0 | 0.0 | 1.7 | 0.00 | 0.00 | 0.00 | 91 | 1021.4 |
| 20260509033957 | 46 | 338 | 0.0 | 1.7 | 0.00 | 0.00 | 0.00 | 91 | 1021.1 |
| 20260509033447 | 46 | 90 | 0.0 | 1.7 | 0.00 | 0.00 | 0.00 | 91 | 1021.2 |
| 20260509032938 | 46 | 203 | 0.0 | 1.7 | 0.00 | 0.00 | 0.00 | 91 | 1020.9 |
| 20260509031917 | 46 | 45 | 0.0 | 0.0 | 0.00 | 0.00 | 0.00 | 90 | 1020.6 |
| 20260509031407 | 46 | 23 | 0.0 | 0.0 | 0.00 | 0.00 | 0.00 | 90 | 1020.6 |
| 20260509030856 | 46 | 23 | 0.0 | 0.0 | 0.00 | 0.00 | 0.00 | 91 | 1020.5 |
| 20260509030348 | 46 | 23 | 0.0 | 0.0 | 0.00 | 0.00 | 0.00 | 91 | 1020.3 |
| 20260509025837 | 46 | 23 | 0.0 | 0.0 | 0.00 | 0.00 | 0.00 | 91 | 1020.2 |
| 20260509025326 | 46 | 45 | 0.0 | 0.0 | 0.00 | 0.00 | 0.00 | 91 | 1020.1 |
| 20260509024816 | 46 | 45 | 0.0 | 0.0 | 0.00 | 0.00 | 0.00 | 91 | 1019.7 |
| 20260509024306 | 46 | 23 | 0.0 | 0.0 | 0.00 | 0.00 | 0.00 | 90 | 1019.4 |
| 20260509023757 | 46 | 23 | 0.0 | 0.0 | 0.00 | 0.00 | 0.00 | 90 | 1019.4 |
| 20260509023246 | 46 | 23 | 0.0 | 0.0 | 0.00 | 0.00 | 0.00 | 90 | 1019.4 |
| 20260509022225 | 45 | 90 | 0.0 | 0.0 | 0.00 | 0.00 | 0.00 | 89 | 1018.9 |
| 20260509021207 | 45 | 158 | 0.0 | 0.0 | 0.00 | 0.00 | 0.00 | 89 | 1018.7 |
| 20260509020655 | 45 | 23 | 0.0 | 0.0 | 0.00 | 0.00 | 0.00 | 89 | 1018.7 |
| 20260509020145 | 45 | 90 | 0.0 | 0.0 | 0.00 | 0.00 | 0.00 | 89 | 1018.7 |
| 20260509015635 | 45 | 23 | 0.0 | 0.0 | 0.00 | 0.00 | 0.00 | 89 | 1018.3 |
| 20260509015125 | 45 | 113 | 0.0 | 0.0 | 0.00 | 0.00 | 0.00 | 88 | 1018.4 |
| 20260509014616 | 45 | 23 | 0.0 | 0.0 | 0.00 | 0.00 | 0.00 | 87 | 1018.3 |
| 20260509013555 | 45 | 68 | 0.0 | 0.0 | 0.00 | 0.00 | 0.00 | 87 | 1018.2 |
| 20260509013045 | 45 | 23 | 0.0 | 0.0 | 0.00 | 0.00 | 0.00 | 86 | 1017.9 |
| 20260509012534 | 45 | 23 | 0.0 | 0.0 | 0.00 | 0.00 | 0.00 | 86 | 1017.9 |
| 20260509011515 | 45 | 315 | 0.0 | 1.7 | 0.00 | 0.00 | 0.00 | 85 | 1017.7 |
| 20260509011004 | 45 | 338 | 0.0 | 1.7 | 0.00 | 0.00 | 0.00 | 85 | 1017.9 |
| 20260509010454 | 45 | 23 | 1.7 | 1.7 | 0.00 | 0.00 | 0.00 | 85 | 1017.3 |
| 20260509005943 | 45 | 23 | 0.0 | 1.7 | 0.00 | 0.00 | 0.00 | 86 | 1017.4 |
| 20260509005435 | 45 | 90 | 0.9 | 3.5 | 0.00 | 0.00 | 0.00 | 85 | 1017.3 |
| 20260509004924 | 45 | 45 | 1.7 | 3.5 | 0.00 | 0.00 | 0.00 | 86 | 1017.3 |
| 20260509004413 | 45 | 315 | 0.9 | 3.5 | 0.00 | 0.00 | 0.00 | 85 | 1017.1 |
| 20260509003904 | 45 | 0 | 0.9 | 3.5 | 0.00 | 0.00 | 0.00 | 84 | 1017.0 |
| 20260509003353 | 45 | 315 | 0.9 | 1.7 | 0.00 | 0.00 | 0.00 | 84 | 1017.1 |
| 20260509002845 | 44 | 68 | 1.7 | 1.7 | 0.00 | 0.00 | 0.00 | 83 | 1017.2 |
| 20260509002333 | 44 | 90 | 0.9 | 1.7 | 0.00 | 0.00 | 0.00 | 85 | 1017.0 |
| 20260509001823 | 44 | 45 | 0.9 | 1.7 | 0.00 | 0.00 | 0.00 | 86 | 1017.0 |
| 20260509001313 | 44 | 135 | 0.9 | 1.7 | 0.00 | 0.00 | 0.00 | 87 | 1016.6 |
| 20260509000803 | 44 | 225 | 0.9 | 1.7 | 0.00 | 0.00 | 0.00 | 87 | 1016.9 |
| 20260508235233 | 44 | 68 | 0.0 | 1.7 | 0.00 | 0.00 | 0.00 | 85 | 1016.6 |
| 20260508234212 | 44 | 45 | 0.9 | 1.7 | 0.00 | 0.00 | 0.00 | 84 | 1016.8 |
| 20260508233703 | 44 | 293 | 0.0 | 1.7 | 0.00 | 0.00 | 0.00 | 84 | 1016.6 |
| 20260508233152 | 44 | 90 | 0.0 | 1.7 | 0.00 | 0.00 | 0.00 | 84 | 1016.4 |
| 20260508232641 | 44 | 180 | 0.9 | 1.7 | 0.00 | 0.00 | 0.00 | 84 | 1016.5 |
| 20260508232131 | 44 | 45 | 0.0 | 1.7 | 0.00 | 0.00 | 0.00 | 83 | 1016.4 |
| 20260508231621 | 44 | 68 | 0.9 | 1.7 | 0.00 | 0.00 | 0.00 | 82 | 1016.0 |
| 20260508230051 | 45 | 135 | 0.9 | 1.7 | 0.00 | 0.00 | 0.00 | 82 | 1015.9 |
| 20260508225031 | 45 | 338 | 0.0 | 1.7 | 0.00 | 0.00 | 0.00 | 80 | 1015.9 |
| 20260508224522 | 45 | 68 | 0.9 | 1.7 | 0.00 | 0.00 | 0.00 | 79 | 1015.8 |
| 20260508224011 | 46 | 45 | 1.7 | 1.7 | 0.00 | 0.00 | 0.00 | 78 | 1015.9 |
| 20260508223501 | 46 | 315 | 0.0 | 1.7 | 0.00 | 0.00 | 0.00 | 76 | 1015.8 |
| 20260508222951 | 46 | 338 | 0.0 | 1.7 | 0.00 | 0.00 | 0.00 | 76 | 1015.8 |
| 20260508222440 | 47 | 23 | 0.0 | 1.7 | 0.00 | 0.00 | 0.00 | 75 | 1015.8 |
| 20260508221420 | 48 | 180 | 0.0 | 0.0 | 0.00 | 0.00 | 0.00 | 72 | 1015.1 |
| 20260508220911 | 48 | 180 | 0.0 | 0.0 | 0.00 | 0.00 | 0.00 | 72 | 1015.2 |
| 20260508220400 | 48 | 180 | 0.0 | 1.7 | 0.00 | 0.00 | 0.00 | 71 | 1015.1 |
| 20260508215341 | 49 | 293 | 0.0 | 1.7 | 0.00 | 0.00 | 0.00 | 69 | 1015.2 |
| 20260508214829 | 50 | 270 | 0.0 | 1.7 | 0.00 | 0.00 | 0.00 | 67 | 1015.0 |
| 20260508213809 | 50 | 23 | 0.9 | 3.5 | 0.00 | 0.00 | 0.00 | 66 | 1015.0 |
| 20260508213300 | 51 | 45 | 1.7 | 5.2 | 0.00 | 0.00 | 0.00 | 65 | 1014.6 |
| 20260508211728 | 52 | 45 | 2.6 | 7.0 | 0.00 | 0.00 | 0.00 | 63 | 1014.8 |
| 20260508211219 | 52 | 45 | 4.3 | 7.0 | 0.00 | 0.00 | 0.00 | 61 | 1014.6 |
| 20260508210709 | 53 | 45 | 3.5 | 7.0 | 0.00 | 0.00 | 0.00 | 60 | 1014.6 |
| 20260508210200 | 53 | 45 | 1.7 | 7.0 | 0.00 | 0.00 | 0.00 | 59 | 1014.9 |
| 20260508205656 | 53 | 23 | 1.7 | 7.8 | 0.00 | 0.00 | 0.00 | 59 | 1014.4 |
| 20260508205138 | 54 | 45 | 3.5 | 11.3 | 0.00 | 0.00 | 0.00 | 58 | 1014.9 |
| 20260508204628 | 54 | 68 | 4.3 | 11.3 | 0.00 | 0.00 | 0.00 | 57 | 1014.6 |
| 20260508204118 | 55 | 23 | 2.6 | 9.6 | 0.00 | 0.00 | 0.00 | 57 | 1014.6 |
| 20260508203610 | 55 | 23 | 3.5 | 9.6 | 0.00 | 0.00 | 0.00 | 55 | 1014.5 |
| 20260508203058 | 55 | 0 | 4.3 | 9.6 | 0.00 | 0.00 | 0.00 | 56 | 1014.5 |
| 20260508202548 | 55 | 0 | 4.3 | 9.6 | 0.00 | 0.00 | 0.00 | 55 | 1014.5 |
| 20260508202038 | 55 | 90 | 2.6 | 9.6 | 0.00 | 0.00 | 0.00 | 56 | 1014.9 |
| 20260508201533 | 55 | 0 | 4.3 | 9.6 | 0.00 | 0.00 | 0.00 | 54 | 1014.8 |
| 20260508201019 | 55 | 338 | 3.5 | 9.6 | 0.00 | 0.00 | 0.00 | 54 | 1015.0 |
| 20260508195957 | 56 | 45 | 3.5 | 9.6 | 0.00 | 0.00 | 0.00 | 53 | 1015.3 |
| 20260508195447 | 56 | 23 | 3.5 | 11.3 | 0.00 | 0.00 | 0.00 | 53 | 1015.2 |
| 20260508194937 | 56 | 45 | 3.5 | 11.3 | 0.00 | 0.00 | 0.00 | 53 | 1015.3 |
| 20260508194429 | 56 | 0 | 3.5 | 13.0 | 0.00 | 0.00 | 0.00 | 53 | 1015.2 |
| 20260508193917 | 56 | 0 | 3.5 | 13.0 | 0.00 | 0.00 | 0.00 | 49 | 1015.2 |
| 20260508193406 | 57 | 45 | 1.7 | 12.2 | 0.00 | 0.00 | 0.00 | 53 | 1015.4 |
| 20260508192858 | 57 | 0 | 3.5 | 9.6 | 0.00 | 0.00 | 0.00 | 50 | 1015.3 |
| 20260508192347 | 56 | 0 | 4.3 | 11.3 | 0.00 | 0.00 | 0.00 | 51 | 1015.6 |
| 20260508191326 | 57 | 315 | 4.3 | 11.3 | 0.00 | 0.00 | 0.00 | 51 | 1015.6 |
| 20260508190307 | 56 | 45 | 4.3 | 12.2 | 0.00 | 0.00 | 0.00 | 50 | 1015.9 |
| 20260508185756 | 56 | 45 | 6.1 | 9.6 | 0.00 | 0.00 | 0.00 | 50 | 1015.8 |
| 20260508183716 | 57 | 338 | 3.5 | 7.8 | 0.00 | 0.00 | 0.00 | 50 | 1016.2 |
| 20260508183206 | 57 | 0 | 3.5 | 9.6 | 0.00 | 0.00 | 0.00 | 49 | 1016.2 |
| 20260508182656 | 57 | 338 | 5.2 | 9.6 | 0.00 | 0.00 | 0.00 | 47 | 1016.3 |
| 20260508182145 | 57 | 338 | 1.7 | 7.0 | 0.00 | 0.00 | 0.00 | 48 | 1016.6 |
| 20260508181635 | 57 | 68 | 1.7 | 11.3 | 0.00 | 0.00 | 0.00 | 48 | 1016.8 |
| 20260508181125 | 57 | 0 | 4.3 | 11.3 | 0.00 | 0.00 | 0.00 | 49 | 1016.6 |
| 20260508180614 | 56 | 0 | 2.6 | 7.8 | 0.00 | 0.00 | 0.00 | 48 | 1017.0 |
| 20260508180106 | 57 | 45 | 3.5 | 7.8 | 0.00 | 0.00 | 0.00 | 49 | 1016.9 |
| 20260508175555 | 57 | 45 | 5.2 | 9.6 | 0.00 | 0.00 | 0.00 | 47 | 1017.1 |
| 20260508175045 | 56 | 68 | 1.7 | 9.6 | 0.00 | 0.00 | 0.00 | 50 | 1017.5 |
| 20260508174534 | 56 | 0 | 2.6 | 7.0 | 0.00 | 0.00 | 0.00 | 48 | 1017.5 |
| 20260508174025 | 56 | 23 | 1.7 | 7.0 | 0.00 | 0.00 | 0.00 | 49 | 1017.6 |
| 20260508173516 | 56 | 45 | 3.5 | 7.0 | 0.00 | 0.00 | 0.00 | 49 | 1017.9 |
| 20260508173004 | 56 | 23 | 4.3 | 9.6 | 0.00 | 0.00 | 0.00 | 46 | 1017.6 |
| 20260508171943 | 56 | 270 | 1.7 | 11.3 | 0.00 | 0.00 | 0.00 | 48 | 1018.2 |
| 20260508171435 | 56 | 23 | 3.5 | 13.0 | 0.00 | 0.00 | 0.00 | 48 | 1018.2 |
| 20260508170925 | 56 | 338 | 3.5 | 13.0 | 0.00 | 0.00 | 0.00 | 48 | 1018.4 |
| 20260508170414 | 56 | 90 | 2.6 | 9.6 | 0.00 | 0.00 | 0.00 | 46 | 1018.4 |
| 20260508165353 | 56 | 23 | 3.5 | 7.8 | 0.00 | 0.00 | 0.00 | 48 | 1018.6 |
| 20260508164844 | 56 | 23 | 3.5 | 7.8 | 0.00 | 0.00 | 0.00 | 48 | 1018.9 |
| 20260508164335 | 56 | 23 | 3.5 | 9.6 | 0.00 | 0.00 | 0.00 | 47 | 1019.1 |
| 20260508163823 | 56 | 23 | 3.5 | 9.6 | 0.00 | 0.00 | 0.00 | 48 | 1019.1 |
| 20260508163312 | 56 | 68 | 3.5 | 9.6 | 0.00 | 0.00 | 0.00 | 48 | 1019.3 |
| 20260508162802 | 56 | 0 | 3.5 | 7.8 | 0.00 | 0.00 | 0.00 | 47 | 1019.3 |
| 20260508162253 | 56 | 23 | 3.5 | 7.0 | 0.00 | 0.00 | 0.00 | 49 | 1019.4 |
| 20260508161744 | 56 | 45 | 3.5 | 7.0 | 0.00 | 0.00 | 0.00 | 48 | 1019.5 |
| 20260508161232 | 56 | 90 | 3.5 | 7.0 | 0.00 | 0.00 | 0.00 | 47 | 1019.7 |
| 20260508160722 | 56 | 293 | 1.7 | 6.1 | 0.00 | 0.00 | 0.00 | 51 | 1019.9 |
| 20260508160213 | 55 | 270 | 2.6 | 5.2 | 0.00 | 0.00 | 0.00 | 50 | 1020.0 |
| 20260508155702 | 55 | 293 | 2.6 | 5.2 | 0.00 | 0.00 | 0.00 | 57 | 1020.1 |
| 20260508155152 | 55 | 315 | 3.5 | 5.2 | 0.00 | 0.00 | 0.00 | 54 | 1019.9 |
| 20260508154642 | 54 | 315 | 1.7 | 3.5 | 0.00 | 0.00 | 0.00 | 60 | 1020.2 |
| 20260508154131 | 53 | 225 | 0.9 | 3.5 | 0.00 | 0.00 | 0.00 | 56 | 1020.3 |
| 20260508153623 | 53 | 293 | 1.7 | 5.2 | 0.00 | 0.00 | 0.00 | 58 | 1020.4 |
| 20260508153112 | 52 | 293 | 1.7 | 7.0 | 0.00 | 0.00 | 0.00 | 62 | 1020.6 |
| 20260508152601 | 51 | 158 | 0.0 | 9.6 | 0.00 | 0.00 | 0.00 | 59 | 1020.9 |
| 20260508152051 | 51 | 180 | 3.5 | 9.6 | 0.00 | 0.00 | 0.00 | 57 | 1020.7 |
| 20260508151541 | 51 | 158 | 3.5 | 9.6 | 0.00 | 0.00 | 0.00 | 57 | 1021.1 |
| 20260508151032 | 51 | 180 | 3.5 | 7.0 | 0.00 | 0.00 | 0.00 | 59 | 1021.4 |
| 20260508150521 | 50 | 203 | 3.5 | 7.8 | 0.00 | 0.00 | 0.00 | 63 | 1021.5 |
| 20260508150011 | 50 | 158 | 3.5 | 9.6 | 0.00 | 0.00 | 0.00 | 61 | 1021.6 |
| 20260508145500 | 51 | 203 | 3.5 | 9.6 | 0.00 | 0.00 | 0.00 | 61 | 1021.5 |
| 20260508144950 | 51 | 180 | 4.3 | 9.6 | 0.00 | 0.00 | 0.00 | 62 | 1021.6 |
| 20260508144442 | 51 | 225 | 4.3 | 9.6 | 0.00 | 0.00 | 0.00 | 62 | 1021.6 |
| 20260508143930 | 51 | 203 | 3.5 | 9.6 | 0.00 | 0.00 | 0.00 | 64 | 1022.0 |
| 20260508143420 | 51 | 180 | 4.3 | 9.6 | 0.00 | 0.00 | 0.00 | 62 | 1021.7 |
| 20260508142910 | 51 | 158 | 3.5 | 9.6 | 0.00 | 0.00 | 0.00 | 62 | 1022.0 |
| 20260508141851 | 51 | 225 | 4.3 | 11.3 | 0.00 | 0.00 | 0.00 | 61 | 1022.0 |
| 20260508141340 | 52 | 203 | 1.7 | 11.3 | 0.00 | 0.00 | 0.00 | 61 | 1022.1 |
| 20260508140829 | 52 | 225 | 4.3 | 11.3 | 0.00 | 0.00 | 0.00 | 60 | 1022.2 |
| 20260508135810 | 53 | 180 | 4.3 | 7.0 | 0.00 | 0.00 | 0.00 | 56 | 1021.9 |
| 20260508135301 | 53 | 315 | 1.7 | 3.5 | 0.00 | 0.00 | 0.00 | 53 | 1021.7 |
| 20260508134749 | 53 | 0 | 0.0 | 3.5 | 0.00 | 0.00 | 0.00 | 58 | 1022.0 |
| 20260508134239 | 52 | 338 | 1.7 | 3.5 | 0.00 | 0.00 | 0.00 | 58 | 1021.7 |
| 20260508133729 | 52 | 45 | 2.6 | 3.5 | 0.00 | 0.00 | 0.00 | 59 | 1021.6 |
| 20260508133220 | 51 | 68 | 1.7 | 3.5 | 0.00 | 0.00 | 0.00 | 62 | 1021.7 |
| 20260508132710 | 51 | 0 | 0.9 | 1.7 | 0.00 | 0.00 | 0.00 | 69 | 1021.5 |
| 20260508132159 | 51 | 158 | 0.0 | 1.7 | 0.00 | 0.00 | 0.00 | 68 | 1021.7 |
| 20260508131648 | 50 | 113 | 1.7 | 1.7 | 0.00 | 0.00 | 0.00 | 67 | 1022.0 |
| 20260508130628 | 51 | 68 | 0.0 | 3.5 | 0.00 | 0.00 | 0.00 | 66 | 1021.5 |
| 20260508130120 | 51 | 293 | 0.9 | 7.0 | 0.00 | 0.00 | 0.00 | 64 | 1021.3 |
| 20260508125608 | 51 | 23 | 3.5 | 9.6 | 0.00 | 0.00 | 0.00 | 60 | 1021.1 |
| 20260508125058 | 50 | 113 | 5.2 | 9.6 | 0.00 | 0.00 | 0.00 | 62 | 1021.0 |
| 20260508124548 | 49 | 113 | 3.5 | 9.6 | 0.00 | 0.00 | 0.00 | 64 | 1020.9 |
| 20260508124037 | 49 | 68 | 4.3 | 11.3 | 0.00 | 0.00 | 0.00 | 66 | 1020.7 |
| 20260508123529 | 48 | 45 | 5.2 | 11.3 | 0.00 | 0.00 | 0.00 | 68 | 1020.6 |
| 20260508123018 | 46 | 0 | 3.5 | 9.6 | 0.00 | 0.00 | 0.00 | 76 | 1020.7 |
| 20260508122508 | 43 | 45 | 0.0 | 9.6 | 0.00 | 0.00 | 0.00 | 87 | 1020.9 |
| 20260508121958 | 42 | 0 | 1.7 | 3.5 | 0.00 | 0.00 | 0.00 | 95 | 1020.6 |
| 20260508121447 | 41 | 0 | 0.0 | 1.7 | 0.00 | 0.00 | 0.00 | 95 | 1020.4 |
| 20260508120938 | 41 | 135 | 0.0 | 3.5 | 0.00 | 0.00 | 0.00 | 95 | 1020.5 |
| 20260508120427 | 40 | 338 | 0.0 | 3.5 | 0.00 | 0.00 | 0.00 | 95 | 1020.7 |
| 20260508114858 | 39 | 23 | 1.7 | 1.7 | 0.00 | 0.00 | 0.00 | 94 | 1020.2 |
| 20260508114348 | 38 | 0 | 0.0 | 1.7 | 0.00 | 0.00 | 0.00 | 94 | 1020.3 |
| 20260508113836 | 38 | 23 | 0.0 | 1.7 | 0.00 | 0.00 | 0.00 | 94 | 1020.2 |
| 20260508113327 | 38 | 0 | 0.0 | 1.7 | 0.00 | 0.00 | 0.00 | 94 | 1020.2 |
| 20260508112816 | 38 | 45 | 0.9 | 1.7 | 0.00 | 0.00 | 0.00 | 94 | 1020.0 |
| 20260508111757 | 38 | 23 | 0.9 | 1.7 | 0.00 | 0.00 | 0.00 | 94 | 1019.9 |
| 20260508111246 | 38 | 90 | 0.9 | 1.7 | 0.00 | 0.00 | 0.00 | 94 | 1020.0 |
| 20260508110736 | 37 | 45 | 1.7 | 1.7 | 0.00 | 0.00 | 0.00 | 94 | 1019.7 |
| 20260508110225 | 37 | 0 | 1.7 | 1.7 | 0.00 | 0.00 | 0.00 | 94 | 1019.6 |
| 20260508105716 | 37 | 23 | 0.0 | 1.7 | 0.00 | 0.00 | 0.00 | 94 | 1019.7 |
| 20260508105206 | 37 | 315 | 0.0 | 1.7 | 0.00 | 0.00 | 0.00 | 94 | 1019.4 |
| 20260508104656 | 37 | 23 | 0.9 | 1.7 | 0.00 | 0.00 | 0.00 | 94 | 1019.1 |
| 20260508104145 | 37 | 113 | 0.0 | 1.7 | 0.00 | 0.00 | 0.00 | 94 | 1019.4 |
| 20260508103635 | 37 | 135 | 0.0 | 1.7 | 0.00 | 0.00 | 0.00 | 94 | 1019.1 |
| 20260508103125 | 37 | 203 | 0.0 | 1.7 | 0.00 | 0.00 | 0.00 | 94 | 1019.3 |
| 20260508102616 | 37 | 315 | 0.0 | 1.7 | 0.00 | 0.00 | 0.00 | 94 | 1019.3 |